�������l�o���
Date,Time,MP-1(��Sv/h),MP-2(��Sv/h),MP-3(��Sv/h),MP-4(��Sv/h),MP-5(��Sv/h),MP-6(��Sv/h),MP-7(��Sv/h),MP-8(��Sv/h),����,����(m/s),���J
2015/02/18,00:00,1.898,3.438,3.732,3.395,3.573,1.103,1.820,2.088,�k�k��,4.7,�L
2015/02/18,00:10,1.900,3.440,3.728,3.392,3.570,1.102,1.818,2.090,�k�k��,4.9,�L
2015/02/18,00:20,1.897,3.428,3.718,3.388,3.558,1.102,1.818,2.088,�k�k��,5.1,�L
2015/02/18,00:30,1.893,3.420,3.708,3.387,3.552,1.103,1.817,2.090,�k�k��,4.6,�L
2015/02/18,00:40,1.893,3.418,3.705,3.385,3.550,1.100,1.818,2.087,�k�k��,5.0,�L
2015/02/18,00:50,1.895,3.420,3.707,3.380,3.548,1.100,1.817,2.088,�k��,4.5,��
2015/02/18,01:00,1.895,3.417,3.712,3.382,3.553,1.103,1.815,2.083,�k�k��,4.6,�L
2015/02/18,01:10,1.895,3.422,3.712,3.382,3.553,1.102,1.817,2.087,�k�k��,5.2,�L
2015/02/18,01:20,1.895,3.423,3.712,3.378,3.557,1.102,1.818,2.087,�k�k��,4.6,�L
2015/02/18,01:30,1.895,3.420,3.708,3.380,3.557,1.100,1.818,2.087,�k�k��,5.0,�L
2015/02/18,01:40,1.890,3.415,3.702,3.378,3.543,1.097,1.815,2.087,�k�k��,4.5,�L
2015/02/18,01:50,1.892,3.407,3.693,3.370,3.537,1.100,1.812,2.083,�k�k��,4.9,�L
2015/02/18,02:00,1.893,3.400,3.687,3.368,3.532,1.097,1.815,2.085,�k�k��,4.5,�L
2015/02/18,02:10,1.883,3.395,3.685,3.365,3.532,1.098,1.815,2.085,�k�k��,5.2,�L
2015/02/18,02:20,1.882,3.382,3.673,3.362,3.530,1.098,1.812,2.082,�k�k��,5.2,�L
2015/02/18,02:30,1.880,3.367,3.668,3.357,3.518,1.097,1.808,2.080,�k�k��,4.9,�L
2015/02/18,02:40,1.872,3.352,3.658,3.348,3.510,1.095,1.807,2.075,�k�k��,4.7,�L
2015/02/18,02:50,1.868,3.347,3.653,3.337,3.498,1.093,1.807,2.077,�k�k��,5.0,�L
2015/02/18,03:00,1.870,3.342,3.648,3.335,3.492,1.093,1.807,2.077,�k�k��,4.5,�L
2015/02/18,03:10,1.868,3.337,3.647,3.330,3.490,1.097,1.803,2.072,�k�k��,4.6,�L
2015/02/18,03:20,1.868,3.337,3.643,3.323,3.488,1.093,1.802,2.072,�k�k��,4.9,�L
2015/02/18,03:30,1.867,3.337,3.643,3.318,3.485,1.093,1.800,2.075,�k�k��,4.5,�L
2015/02/18,03:40,1.867,3.332,3.640,3.312,3.478,1.092,1.800,2.073,�k�k��,4.6,�L
2015/02/18,03:50,1.867,3.332,3.633,3.310,3.475,1.093,1.802,2.072,�k�k��,4.6,�L
2015/02/18,04:00,1.865,3.330,3.635,3.310,3.472,1.092,1.800,2.068,�k�k��,4.4,�L
2015/02/18,04:10,1.867,3.337,3.632,3.308,3.465,1.092,1.795,2.070,�k��,4.4,�L
2015/02/18,04:20,1.867,3.340,3.635,3.305,3.465,1.092,1.798,2.070,�k�k��,4.9,�L
2015/02/18,04:30,1.867,3.337,3.637,3.302,3.462,1.090,1.797,2.068,�k�k��,4.9,�L
2015/02/18,04:40,1.865,3.322,3.627,3.297,3.452,1.087,1.795,2.070,�k��,4.0,�L
2015/02/18,04:50,1.867,3.310,3.612,3.290,3.445,1.083,1.792,2.070,�k�k��,3.5,�L
2015/02/18,05:00,1.863,3.303,3.600,3.275,3.430,1.085,1.792,2.065,�k�k��,4.6,�L
2015/02/18,05:10,1.860,3.310,3.607,3.273,3.425,1.085,1.792,2.065,�k�k��,3.4,�L
2015/02/18,05:20,1.863,3.308,3.612,3.273,3.422,1.083,1.792,2.067,�k�k��,3.8,�L
2015/02/18,05:30,1.858,3.310,3.605,3.275,3.417,1.083,1.790,2.065,�k�k��,4.0,�L
2015/02/18,05:40,1.858,3.312,3.605,3.277,3.408,1.083,1.788,2.065,�k�k��,2.4,�L
2015/02/18,05:50,1.857,3.302,3.605,3.277,3.405,1.083,1.788,2.062,�k�k��,3.5,�L
2015/02/18,06:00,1.855,3.293,3.593,3.268,3.395,1.078,1.787,2.065,�k�k��,3.2,�L
2015/02/18,06:10,1.853,3.280,3.583,3.255,3.385,1.077,1.785,2.060,�k��,5.3,�L
2015/02/18,06:20,1.847,3.268,3.575,3.248,3.377,1.072,1.780,2.058,�k�k��,4.9,�L
2015/02/18,06:30,1.842,3.262,3.570,3.245,3.372,1.068,1.777,2.053,�k�k��,4.3,�L
2015/02/18,06:40,1.837,3.258,3.575,3.248,3.373,1.067,1.775,2.050,�k�k��,4.5,�L
2015/02/18,06:50,1.838,3.262,3.575,3.247,3.375,1.063,1.777,2.053,�k,4.9,�L
2015/02/18,07:00,1.838,3.263,3.577,3.248,3.368,1.065,1.775,2.052,�k�k��,5.0,�L
2015/02/18,07:10,1.840,3.257,3.567,3.242,3.362,1.063,1.778,2.045,�k�k��,4.9,�L
2015/02/18,07:20,1.842,3.258,3.572,3.242,3.363,1.060,1.777,2.052,�k�k��,4.1,�L
2015/02/18,07:30,1.845,3.272,3.582,3.252,3.380,1.058,1.777,2.053,�k�k��,5.5,�L
2015/02/18,07:40,1.845,3.283,3.593,3.260,3.385,1.057,1.782,2.055,�k��,4.9,�L
2015/02/18,07:50,1.857,3.292,3.595,3.270,3.390,1.055,1.780,2.055,�k�k��,5.0,�L
2015/02/18,08:00,1.852,3.293,3.598,3.268,3.390,1.055,1.782,2.050,�k�k��,5.5,�L
2015/02/18,08:10,1.847,3.288,3.592,3.262,3.383,1.053,1.778,2.052,�k�k��,5.0,�L
2015/02/18,08:20,1.847,3.280,3.590,3.257,3.377,1.050,1.778,2.050,�k�k��,5.8,�L
2015/02/18,08:30,1.847,3.282,3.583,3.257,3.378,1.052,1.777,2.050,�k�k��,5.2,�L
2015/02/18,08:40,1.847,3.282,3.583,3.255,3.372,1.052,1.775,2.048,�k�k��,6.3,�L
2015/02/18,08:50,1.842,3.275,3.582,3.252,3.368,1.050,1.775,2.045,�k�k��,5.6,�L
2015/02/18,09:00,1.842,3.263,3.563,3.237,3.348,1.050,1.772,2.045,�k,6.3,�L
2015/02/18,09:10,1.838,3.257,3.563,3.227,3.337,1.048,1.770,2.047,�k�k��,6.8,�L
2015/02/18,09:20,1.838,3.262,3.558,3.232,3.340,1.048,1.767,2.043,�k�k��,5.2,�L
2015/02/18,09:30,1.840,3.255,3.552,3.228,3.335,1.047,1.770,2.047,�k�k��,6.6,�L
2015/02/18,09:40,1.840,3.253,3.553,3.232,3.327,1.047,1.775,2.045,�k�k��,4.7,�L
2015/02/18,09:50,1.840,3.253,3.547,3.225,3.323,1.048,1.768,2.043,�k��,6.3,�L
2015/02/18,10:00,1.830,3.238,3.545,3.220,3.310,1.043,1.767,2.037,�k�k��,6.7,�L
2015/02/18,10:10,1.825,3.232,3.537,3.213,3.310,1.047,1.763,2.038,�k�k��,5.3,�L
2015/02/18,10:20,1.822,3.233,3.532,3.220,3.310,1.045,1.760,2.038,�k�k��,6.5,�L
2015/02/18,10:30,1.820,3.230,3.537,3.220,3.293,1.043,1.762,2.038,�k��,5.3,�L
2015/02/18,10:40,1.820,3.233,3.530,3.212,3.270,1.042,1.762,2.040,�k��,4.0,�L
2015/02/18,10:50,1.815,3.232,3.523,3.208,3.260,1.042,1.758,2.035,�k��,6.1,�L
2015/02/18,11:00,1.812,3.218,3.515,3.205,3.253,1.038,1.757,2.035,�k�k��,4.9,�L
2015/02/18,11:10,1.805,3.210,3.502,3.197,3.238,1.037,1.750,2.033,�k�k��,7.5,�L
2015/02/18,11:20,1.807,3.210,3.497,3.187,3.222,1.037,1.748,2.033,�k�k��,5.7,�L
2015/02/18,11:30,1.810,3.213,3.485,3.185,3.210,1.035,1.747,2.028,�k�k��,6.7,�L
2015/02/18,11:40,1.807,3.202,3.468,3.177,3.190,1.030,1.738,2.028,�k�k��,7.5,�L
2015/02/18,11:50,1.808,3.187,3.447,3.170,3.170,1.030,1.740,2.025,�k�k��,7.7,�L
2015/02/18,12:00,1.805,3.180,3.432,3.165,3.160,1.028,1.737,2.028,�k�k��,7.1,�L
2015/02/18,12:10,1.805,3.178,3.418,3.158,3.153,1.027,1.733,2.023,�k�k��,7.1,�L
2015/02/18,12:20,1.803,3.175,3.408,3.158,3.140,1.023,1.735,2.025,�k�k��,7.1,�L
2015/02/18,12:30,1.802,3.173,3.403,3.152,3.132,1.025,1.732,2.027,�k�k��,6.0,�L
2015/02/18,12:40,1.800,3.177,3.402,3.150,3.127,1.025,1.728,2.028,�k�k��,7.7,�L
2015/02/18,12:50,1.800,3.180,3.398,3.152,3.125,1.025,1.730,2.027,�k�k��,6.5,�L
2015/02/18,13:00,1.800,3.182,3.398,3.155,3.118,1.023,1.732,2.027,�k�k��,5.8,�L
2015/02/18,13:10,1.795,3.185,3.405,3.155,3.113,1.023,1.730,2.028,�k�k��,7.2,�L
2015/02/18,13:20,1.797,3.182,3.400,3.153,3.108,1.023,1.732,2.030,�k�k��,6.1,�L
2015/02/18,13:30,1.797,3.183,3.397,3.155,3.110,1.022,1.732,2.030,�k�k��,6.9,�L
2015/02/18,13:40,1.795,3.185,3.397,3.152,3.105,1.022,1.732,2.030,�k�k��,6.6,�L
2015/02/18,13:50,1.797,3.182,3.395,3.152,3.092,1.018,1.735,2.028,�k�k��,6.7,�L
2015/02/18,14:00,1.795,3.180,3.393,3.152,3.083,1.020,1.733,2.028,�k�k��,7.4,�L
2015/02/18,14:10,1.795,3.180,3.390,3.152,3.072,1.018,1.732,2.028,�k�k��,8.8,�L
2015/02/18,14:20,1.798,3.182,3.395,3.147,3.070,1.020,1.725,2.027,�k�k��,8.0,�L
2015/02/18,14:30,1.800,3.188,3.392,3.142,3.063,1.022,1.728,2.027,�k�k��,8.2,�L
2015/02/18,14:40,1.803,3.193,3.387,3.143,3.057,1.020,1.723,2.025,�k�k��,8.6,�L
2015/02/18,14:50,1.803,3.190,3.388,3.137,3.053,1.018,1.727,2.025,�k�k��,8.0,�L
2015/02/18,15:00,1.798,3.185,3.380,3.135,3.048,1.018,1.725,2.025,�k�k��,7.4,�L
2015/02/18,15:10,1.797,3.183,3.373,3.138,3.030,1.018,1.720,2.025,�k�k��,8.0,�L
2015/02/18,15:20,1.797,3.178,3.370,3.133,3.023,1.017,1.722,2.025,�k�k��,8.2,�L
2015/02/18,15:30,1.797,3.177,3.363,3.132,3.010,1.013,1.718,2.022,�k�k��,7.8,�L
2015/02/18,15:40,1.793,3.177,3.357,3.128,3.002,1.012,1.717,2.020,�k�k��,8.6,�L
2015/02/18,15:50,1.795,3.173,3.347,3.125,2.992,1.015,1.713,2.017,�k�k��,7.8,�L
2015/02/18,16:00,1.798,3.170,3.345,3.120,2.983,1.013,1.713,2.017,�k�k��,8.8,�L
2015/02/18,16:10,1.800,3.168,3.337,3.118,2.978,1.013,1.712,2.017,�k�k��,8.3,�L
2015/02/18,16:20,1.800,3.172,3.335,3.115,2.978,1.012,1.708,2.015,�k�k��,9.6,�L
2015/02/18,16:30,1.802,3.173,3.332,3.110,2.977,1.012,1.710,2.013,�k�k��,8.6,�L
2015/02/18,16:40,1.802,3.178,3.330,3.110,2.970,1.012,1.708,2.015,�k�k��,8.8,�L
2015/02/18,16:50,1.803,3.187,3.337,3.118,2.972,1.010,1.713,2.017,�k�k��,9.4,�L
2015/02/18,17:00,1.810,3.188,3.345,3.125,2.977,1.012,1.717,2.018,�k�k��,9.9,�L
2015/02/18,17:10,1.812,3.198,3.352,3.130,2.978,1.012,1.717,2.022,�k�k��,10.4,�L
2015/02/18,17:20,1.817,3.208,3.363,3.142,2.990,1.015,1.718,2.025,�k�k��,9.4,�L
2015/02/18,17:30,1.822,3.223,3.375,3.148,2.995,1.018,1.727,2.030,�k�k��,10.1,�L
2015/02/18,17:40,1.822,3.227,3.383,3.157,3.005,1.022,1.728,2.033,�k�k��,8.8,�L
2015/02/18,17:50,1.825,3.230,3.398,3.162,3.012,1.025,1.730,2.032,�k�k��,9.1,��
2015/02/18,18:00,1.827,3.237,3.403,3.168,3.018,1.023,1.732,2.035,�k�k��,8.2,��
2015/02/18,18:10,1.832,3.243,3.413,3.175,3.028,1.027,1.733,2.037,�k�k��,9.3,��
2015/02/18,18:20,1.833,3.250,3.422,3.178,3.035,1.027,1.737,2.042,�k�k��,8.9,��
2015/02/18,18:30,1.833,3.255,3.427,3.187,3.038,1.027,1.740,2.040,�k�k��,8.5,��
2015/02/18,18:40,1.835,3.257,3.432,3.188,3.047,1.030,1.740,2.040,�k�k��,8.5,��
2015/02/18,18:50,1.837,3.262,3.438,3.195,3.055,1.032,1.743,2.040,�k�k��,7.7,��
2015/02/18,19:00,1.837,3.268,3.443,3.198,3.060,1.030,1.745,2.042,�k�k��,8.2,�L
2015/02/18,19:10,1.838,3.270,3.452,3.198,3.065,1.033,1.747,2.043,�k�k��,8.0,�L
2015/02/18,19:20,1.840,3.273,3.458,3.203,3.072,1.038,1.747,2.042,�k�k��,10.1,�L
2015/02/18,19:30,1.838,3.272,3.458,3.207,3.077,1.037,1.747,2.042,�k�k��,8.5,�L
2015/02/18,19:40,1.837,3.275,3.460,3.203,3.080,1.037,1.750,2.045,�k�k��,10.7,�L
2015/02/18,19:50,1.842,3.273,3.463,3.203,3.082,1.042,1.748,2.042,�k�k��,8.3,�L
2015/02/18,20:00,1.845,3.272,3.467,3.203,3.085,1.043,1.748,2.043,�k�k��,8.2,�L
2015/02/18,20:10,1.842,3.275,3.467,3.203,3.090,1.043,1.750,2.038,�k�k��,8.5,�L
2015/02/18,20:20,1.843,3.273,3.468,3.207,3.088,1.043,1.752,2.042,�k�k��,8.0,�L
2015/02/18,20:30,1.842,3.273,3.472,3.207,3.093,1.040,1.757,2.040,�k�k��,8.8,�L
2015/02/18,20:40,1.840,3.273,3.470,3.208,3.097,1.042,1.755,2.045,�k�k��,8.6,�L
2015/02/18,20:50,1.840,3.277,3.473,3.210,3.095,1.043,1.755,2.042,�k�k��,8.5,�L
2015/02/18,21:00,1.840,3.278,3.475,3.210,3.103,1.042,1.757,2.042,�k�k��,7.5,�L
2015/02/18,21:10,1.840,3.278,3.470,3.212,3.107,1.043,1.755,2.042,�k�k��,9.1,�L
2015/02/18,21:20,1.842,3.277,3.475,3.210,3.108,1.043,1.755,2.040,�k�k��,8.5,�L
2015/02/18,21:30,1.838,3.273,3.478,3.210,3.112,1.043,1.755,2.040,�k�k��,8.8,�L
2015/02/18,21:40,1.840,3.278,3.482,3.208,3.112,1.043,1.757,2.040,�k�k��,8.9,�L
2015/02/18,21:50,1.838,3.283,3.487,3.208,3.115,1.045,1.758,2.042,�k�k��,8.0,�L
2015/02/18,22:00,1.842,3.280,3.487,3.212,3.118,1.047,1.762,2.042,�k�k��,8.2,�L
2015/02/18,22:10,1.840,3.283,3.490,3.213,3.123,1.048,1.758,2.042,�k�k��,8.2,�L
2015/02/18,22:20,1.845,3.282,3.495,3.213,3.128,1.047,1.758,2.042,�k�k��,8.0,�L
2015/02/18,22:30,1.842,3.283,3.493,3.218,3.132,1.048,1.762,2.042,�k�k��,8.3,�L
2015/02/18,22:40,1.843,3.287,3.498,3.217,3.133,1.050,1.760,2.045,�k�k��,8.2,�L
2015/02/18,22:50,1.843,3.287,3.502,3.215,3.133,1.048,1.762,2.043,�k�k��,8.5,�L
2015/02/18,23:00,1.845,3.287,3.500,3.222,3.140,1.052,1.763,2.043,�k�k��,7.7,�L
2015/02/18,23:10,1.842,3.288,3.503,3.223,3.142,1.047,1.762,2.047,�k�k��,8.6,�L
2015/02/18,23:20,1.843,3.285,3.500,3.225,3.143,1.050,1.760,2.045,�k�k��,6.8,�L
2015/02/18,23:30,1.843,3.288,3.505,3.222,3.138,1.050,1.762,2.043,�k�k��,9.4,�L
2015/02/18,23:40,1.845,3.288,3.502,3.220,3.140,1.050,1.760,2.043,�k�k��,8.8,�L
2015/02/18,23:50,1.842,3.283,3.498,3.217,3.142,1.048,1.762,2.045,�k�k��,9.1,�L
